Wind_Speed
14 14 14 13 13 14 14 14 14 14 14 14 14 13 13 13 13 13 14 15 17 18 19 20 20 20 20 19 17 16 16 14 14 12 9 10 13 18 22 25 26 26 26 26 25 24 22 20 18 17 16 16 14 12 11 9 7 6 4 4 5 3 2 3 3 3 3 4 4 4 3 4 3 2 3 4 4 2 2 3 7 10 8 10 13 12 11 13
16 16 15 15 15 14 14 14 14 14 14 14 14 14 13 13 12 12 13 13 15 16 17 19 19 20 21 20 18 18 17 16 17 11 6 10 13 15 19 24 26 26 27 27 25 24 23 22 20 18 17 17 15 14 12 10 8 7 5 5 5 3 4 5 5 4 4 4 5 4 4 5 5 4 3 3 4 3 1 2 4 8 9 9 12 13 12 13
18 18 18 17 17 16 16 15 15 15 15 14 14 14 13 13 12 12 12 12 13 14 16 17 18 19 20 21 20 19 18 18 18 12 9 13 13 13 17 20 24 25 26 26 24 23 23 23 21 20 20 19 17 15 13 11 9 9 7 7 6 5 6 5 6 4 3 5 5 3 3 5 6 6 3 1 2 4 1 2 3 4 6 7 10 13 13 13
18 19 19 19 19 18 17 17 16 15 15 15 15 14 14 13 13 12 12 12 12 12 14 15 16 17 19 20 19 19 19 19 19 14 13 16 14 14 16 17 21 23 24 25 25 24 24 24 23 22 22 21 20 17 15 13 9 10 10 8 7 6 6 5 6 5 4 4 4 1 1 3 5 6 3 3 1 2 1 3 3 3 4 4 6 10 13 14
19 19 19 20 20 20 19 19 18 17 16 16 15 15 14 14 13 13 12 12 11 11 11 13 14 16 18 19 19 20 18 16 17 16 16 16 15 16 16 17 19 21 24 26 26 26 26 26 25 26 24 23 23 20 17 14 10 12 10 8 10 10 7 6 7 6 5 4 4 3 1 2 5 5 4 5 3 1 2 4 4 5 6 5 4 6 11 13
20 20 20 20 20 20 20 20 20 19 18 18 17 16 15 14 14 13 13 12 12 11 11 11 12 14 17 18 18 19 18 14 13 14 15 16 16 16 17 17 19 22 24 26 27 28 28 28 28 28 26 24 24 21 18 15 13 14 10 8 11 13 13 11 9 6 4 4 2 2 1 1 2 3 4 6 6 3 3 4 6 6 7 6 6 6 8 12
20 20 20 20 20 20 21 21 21 20 20 20 19 18 16 15 15 14 14 13 12 12 12 11 11 13 15 17 17 18 21 17 12 12 13 15 15 16 17 18 20 23 25 27 28 29 28 29 30 29 27 26 24 21 19 18 16 15 13 11 11 13 15 13 9 6 3 2 1 0 1 1 2 2 4 4 7 7 3 3 6 5 5 6 7 7 8 11
20 21 21 21 21 21 21 21 21 21 21 21 21 19 18 17 16 15 15 14 13 13 13 12 12 13 14 15 16 18 17 11 15 17 14 15 15 16 17 18 21 23 25 27 28 28 28 29 29 29 28 26 24 22 21 20 18 18 15 13 13 13 14 13 11 6 3 3 2 1 2 4 4 2 5 4 6 9 6 5 5 4 3 5 7 8 9 11
20 20 20 21 21 22 22 21 21 21 21 22 22 20 19 18 17 16 16 15 15 14 14 14 13 13 14 13 15 15 10 11 20 24 20 19 17 15 16 17 19 22 25 26 26 27 28 29 29 28 28 26 26 25 24 20 16 18 16 14 13 14 16 15 13 9 6 6 5 3 3 6 6 3 4 6 8 9 8 8 7 5 3 3 5 8 9 11
19 19 20 20 21 21 22 22 22 21 21 22 22 21 20 19 19 17 17 16 16 16 15 15 14 14 13 13 14 10 9 16 22 23 23 23 20 17 15 16 18 20 24 25 27 28 28 27 25 26 27 26 27 28 26 21 16 18 18 16 15 15 18 17 16 13 10 8 6 6 6 7 8 7 4 7 8 7 8 10 10 9 6 3 4 7 10 12
20 20 20 20 20 21 21 21 21 21 22 22 22 22 20 20 20 19 18 18 17 16 16 15 15 15 15 15 13 9 12 17 19 20 22 22 22 20 17 17 17 19 21 24 27 26 26 25 23 27 28 27 29 28 28 26 21 21 20 17 17 17 18 18 17 16 13 10 6 8 10 10 11 8 4 6 5 4 7 9 11 12 10 7 5 6 10 14
22 22 22 21 21 21 20 20 20 20 21 22 23 22 21 21 21 20 19 19 18 18 17 16 17 16 17 16 9 9 16 19 20 21 21 20 21 21 20 19 19 19 19 22 24 23 23 24 25 27 26 25 27 23 24 28 26 23 22 20 18 17 18 19 18 17 16 13 8 9 12 13 15 9 4 5 4 4 6 7 10 13 13 12 9 8 9 14
23 23 23 24 24 23 22 20 20 20 20 21 22 22 22 21 21 20 20 20 19 19 18 18 18 17 19 15 8 12 19 20 21 22 22 22 22 22 22 21 20 20 19 18 18 21 23 25 27 25 23 22 20 20 22 24 27 24 22 22 18 17 19 19 18 18 17 15 12 10 10 11 11 8 5 6 6 7 7 7 9 12 14 15 14 11 10 12
24 24 24 25 25 25 24 22 21 21 21 21 21 21 22 22 21 21 21 21 20 20 20 19 19 19 20 14 10 17 20 19 21 22 23 22 23 23 22 21 21 21 22 22 20 21 23 25 26 23 23 21 16 22 23 18 21 21 18 20 18 16 17 15 16 19 17 16 15 11 11 11 8 6 6 7 8 8 9 8 10 12 14 15 16 15 12 12
25 25 25 26 26 27 26 24 23 23 22 22 21 21 21 21 21 21 21 21 21 21 21 21 20 21 21 15 14 19 20 20 19 20 22 23 23 23 22 22 21 21 23 26 26 25 24 25 25 23 22 24 20 21 21 16 17 17 16 19 19 19 17 12 14 19 18 14 15 14 14 13 9 8 9 9 10 9 10 8 10 12 15 15 16 17 15 13
26 26 26 27 27 28 28 26 25 24 24 24 23 22 22 21 21 21 21 21 21 21 21 22 22 22 22 18 16 19 21 19 17 20 23 23 23 23 22 22 21 22 23 25 26 25 24 24 25 24 21 24 27 21 17 18 19 18 19 20 19 21 20 15 14 18 19 15 14 16 16 14 8 8 11 12 12 10 11 10 10 13 15 16 16 17 17 15
27 27 27 28 29 30 29 28 27 25 25 25 24 24 23 22 22 21 21 22 22 22 22 22 23 24 24 19 17 20 22 20 20 22 24 23 25 26 25 24 22 23 24 25 26 24 24 25 25 26 23 23 27 23 20 24 23 21 21 21 18 17 18 17 14 15 20 19 16 15 18 18 12 8 13 16 15 13 14 11 10 12 15 18 18 18 18 18
29 29 28 28 29 31 31 29 28 27 26 27 26 25 25 24 24 22 21 22 22 22 22 23 24 24 22 20 19 20 22 23 24 24 24 25 27 27 27 25 23 24 25 26 26 26 26 26 24 25 26 26 26 28 29 27 24 22 21 22 22 17 17 18 13 13 17 18 18 17 17 19 16 12 15 19 17 15 14 11 9 11 14 18 20 20 19 19
31 30 29 29 30 32 32 31 30 28 27 28 28 27 26 25 25 24 22 22 22 22 22 23 23 22 20 19 19 21 23 24 26 27 25 27 29 29 28 26 24 25 27 28 27 28 28 25 25 28 30 32 32 32 31 24 19 21 22 21 23 20 20 21 15 13 16 17 19 20 19 18 16 13 12 17 19 17 15 13 10 10 14 17 19 22 21 20
33 32 31 30 30 32 33 32 31 29 28 28 28 28 28 27 26 26 24 22 23 23 23 24 24 23 23 22 19 21 23 23 26 30 28 28 30 31 30 30 28 26 29 29 27 29 30 27 30 35 34 31 32 31 27 23 17 17 20 20 23 22 20 20 16 16 21 21 20 21 21 19 16 14 12 16 21 21 17 14 12 10 12 15 18 21 22 21
34 33 32 31 30 32 33 33 31 30 29 28 28 27 27 27 26 27 27 23 22 24 25 25 27 27 26 25 22 20 23 25 27 31 32 30 31 33 34 34 33 32 31 28 25 27 31 32 34 35 32 26 26 29 27 25 20 17 19 20 23 25 23 19 15 16 21 22 21 20 21 22 20 18 16 16 23 24 19 16 15 14 13 14 16 19 22 23
35 34 33 32 31 31 33 33 32 30 29 28 27 26 26 26 26 28 30 27 22 22 25 25 28 29 26 27 26 23 25 28 29 31 33 33 35 37 37 37 37 35 32 28 26 27 32 39 36 30 29 26 22 25 28 26 24 22 21 20 23 25 24 21 17 18 20 20 21 20 22 25 22 20 19 18 24 28 22 18 17 16 15 14 16 17 20 24
36 35 34 32 31 31 32 32 31 30 28 28 26 26 26 24 25 26 29 31 26 23 24 25 28 29 26 27 29 30 29 28 31 33 34 37 41 40 38 40 39 33 32 34 33 32 34 36 34 28 26 27 24 24 26 26 26 26 25 24 26 25 21 20 18 17 18 20 22 20 21 26 23 22 23 21 25 30 25 20 18 17 16 13 14 16 18 22
38 37 35 33 31 30 31 30 30 29 27 26 25 25 25 22 23 25 28 32 32 27 23 24 28 29 26 26 29 34 33 30 32 34 35 41 43 41 40 40 39 34 34 38 37 35 32 25 25 29 28 27 28 26 26 26 26 29 30 29 27 23 21 20 14 10 12 18 22 21 22 29 28 26 27 24 24 28 26 22 19 19 18 14 13 16 18 19
40 39 37 35 32 30 31 30 28 27 25 24 24 23 24 21 20 22 25 28 31 29 25 25 27 26 27 29 29 31 35 36 35 33 37 42 43 43 42 39 38 36 35 37 36 35 31 21 19 27 30 29 30 28 28 28 27 28 31 32 28 22 20 20 15 11 13 15 17 17 18 24 28 27 25 21 20 23 24 23 21 21 20 18 16 17 18 17
41 40 38 36 34 30 29 29 27 26 24 22 22 22 21 19 17 18 21 22 25 26 24 24 22 23 28 31 30 28 32 39 38 34 37 41 45 45 40 37 38 36 34 34 33 33 31 24 21 25 29 30 30 30 30 28 27 27 26 27 28 25 21 20 18 17 19 19 16 15 16 20 24 25 21 18 19 22 24 24 21 21 22 20 16 14 16 18
41 41 39 37 36 32 29 28 27 26 24 20 20 21 18 16 14 13 14 14 14 14 17 19 17 20 25 28 31 28 26 32 36 40 41 39 45 48 39 34 37 36 32 30 31 34 31 26 24 26 27 27 29 31 30 28 28 27 21 18 23 27 26 22 19 19 21 20 18 17 18 21 25 26 20 16 17 18 24 26 22 21 23 21 15 10 11 16
41 42 40 37 35 34 30 28 26 25 24 20 18 18 16 13 10 7 7 7 5 4 9 14 16 18 21 23 27 30 29 27 29 38 44 39 42 50 44 35 37 38 34 32 33 33 30 31 30 28 28 25 28 30 27 28 29 25 17 14 17 21 24 24 22 22 21 20 22 23 21 20 25 30 24 21 22 20 23 29 27 23 22 22 17 10 9 12
40 41 41 38 35 33 30 27 25 24 23 20 16 15 13 11 8 4 4 6 4 5 7 9 12 15 18 20 21 30 35 30 24 29 40 43 42 47 47 39 33 34 35 33 33 27 24 31 32 28 29 27 25 24 24 27 29 23 15 12 12 14 19 21 21 23 21 21 25 26 23 19 21 28 26 24 27 27 28 31 30 28 24 22 20 14 11 12
37 39 40 39 36 34 30 27 24 22 22 19 16 14 12 10 8 6 8 8 5 6 10 11 11 11 15 17 18 27 35 33 27 25 33 44 46 44 44 38 30 29 33 33 33 29 21 24 29 28 30 28 22 19 22 25 25 21 16 13 12 13 16 17 20 21 18 20 25 25 25 21 19 25 28 27 26 27 32 30 26 29 28 24 22 18 15 13
35 36 37 36 36 34 32 28 23 21 20 18 16 13 11 10 11 11 8 7 7 6 7 11 13 11 11 13 13 20 32 35 28 23 30 43 47 43 39 35 31 28 31 34 35 33 26 20 24 29 30 27 22 19 20 22 22 20 18 16 14 13 14 14 17 19 15 14 19 22 25 24 23 26 25 24 26 28 32 29 24 25 27 27 24 21 18 14
34 34 34 34 33 32 31 29 24 20 18 16 15 11 10 10 15 18 11 5 5 5 7 9 12 12 12 15 13 15 25 32 29 23 30 43 46 47 45 39 37 33 31 35 33 33 34 27 22 26 30 28 24 21 21 21 23 23 20 19 16 12 11 12 13 15 15 13 14 16 19 24 31 32 23 20 24 26 30 32 28 24 24 27 27 23 20 16
32 32 32 32 31 29 28 28 25 21 16 14 14 10 11 12 13 18 17 10 5 6 9 8 12 16 15 14 12 14 18 24 28 23 25 37 40 43 45 39 37 35 28 28 29 30 32 29 25 26 29 32 30 26 25 25 25 27 25 23 20 12 8 10 10 10 12 14 16 14 13 20 28 27 24 26 26 24 28 34 32 27 24 27 27 25 23 18
31 31 30 30 28 27 26 25 23 21 15 12 13 9 13 17 13 9 12 12 11 12 12 8 11 16 14 11 11 14 16 17 24 24 21 30 34 34 39 39 37 35 26 22 27 31 27 25 32 34 30 32 36 32 26 23 25 28 27 24 23 18 10 8 8 10 11 12 16 17 13 14 17 14 16 23 27 27 31 35 34 29 26 27 28 26 24 21
30 30 29 28 26 25 24 22 21 20 16 12 11 10 15 20 16 10 8 10 14 16 18 16 13 11 10 12 12 13 16 14 20 24 21 26 32 32 35 38 37 35 30 25 25 30 29 24 28 34 31 29 34 34 26 21 24 27 27 26 26 24 17 10 7 9 11 9 13 20 18 12 11 11 10 11 16 22 26 28 29 29 28 28 29 28 26 23
31 29 28 26 25 23 22 20 19 18 16 12 10 13 17 17 13 10 9 11 14 14 17 18 14 11 12 13 12 12 14 13 16 23 23 23 27 28 28 32 36 34 32 29 23 24 28 22 19 28 31 28 30 33 30 26 23 24 28 31 28 24 21 16 10 7 8 8 9 18 21 17 14 17 16 15 15 16 19 21 22 24 24 25 29 30 27 24
31 29 27 25 24 22 21 19 17 16 15 12 11 13 14 13 11 11 12 13 12 12 13 12 8 8 10 10 9 9 10 12 14 19 23 22 22 26 28 30 36 38 37 34 25 20 22 17 17 26 30 29 28 29 31 30 23 21 27 29 24 20 20 18 13 8 8 9 10 17 21 18 16 14 14 21 22 19 20 22 21 21 20 21 25 27 26 24
32 29 27 24 22 22 20 18 16 15 13 10 12 14 13 12 12 14 14 14 13 12 12 12 9 5 5 6 4 3 7 12 13 16 22 22 19 26 33 33 36 43 45 42 27 16 18 17 14 23 28 27 28 27 29 33 29 23 22 24 23 21 20 19 14 10 10 8 9 15 19 18 19 15 9 14 21 22 22 22 22 22 22 23 24 24 24 23
32 29 25 22 20 20 19 17 15 12 9 8 11 12 11 12 13 14 15 14 13 13 13 12 11 9 7 8 8 5 7 8 9 13 18 19 14 21 33 34 35 41 45 46 34 15 14 18 13 18 25 25 28 32 32 33 33 27 21 22 25 21 18 21 20 14 11 8 7 11 13 14 19 20 16 13 14 16 18 19 20 20 22 24 25 24 24 23
31 27 22 22 20 17 17 15 12 9 7 9 10 11 11 13 14 14 14 13 12 12 14 14 13 13 13 11 11 8 7 6 5 8 10 13 12 16 30 34 33 38 40 46 43 21 12 19 14 14 23 27 30 34 35 33 33 33 27 25 28 23 16 17 21 21 16 10 6 7 8 8 9 13 18 19 17 16 16 17 17 17 18 20 21 23 24 23
30 24 21 23 21 17 14 11 8 7 8 8 8 10 12 13 14 14 13 12 12 13 15 16 16 15 15 13 11 9 8 7 6 5 4 9 10 8 22 32 31 33 34 39 42 28 16 19 18 16 22 28 28 28 30 30 31 34 32 28 29 27 20 13 14 20 22 16 10 7 6 5 2 6 9 11 12 14 14 15 16 15 15 17 17 18 20 21
29 23 21 23 21 17 13 8 6 7 7 8 9 10 12 13 13 14 13 12 12 12 14 16 18 17 16 15 13 11 9 8 7 6 2 6 11 9 14 24 25 25 25 27 32 33 27 20 18 19 20 21 21 22 26 29 30 32 32 30 30 28 26 18 12 15 20 20 16 12 10 7 5 9 8 5 6 8 10 11 13 14 14 15 16 16 17 20
27 23 21 21 19 16 12 8 8 9 9 10 11 11 11 12 13 13 14 13 12 10 11 13 14 15 14 13 12 12 11 9 6 5 2 2 9 12 12 16 21 21 19 18 21 30 34 25 19 20 17 15 16 18 23 27 28 33 33 32 32 31 29 23 16 14 16 19 18 13 10 10 9 9 7 6 5 6 7 7 8 9 10 12 14 16 17 18
27 23 21 20 18 14 11 10 11 11 12 12 12 12 12 11 13 13 13 13 12 9 9 11 11 11 12 12 11 10 10 9 7 5 4 1 4 12 13 14 20 21 19 20 21 23 29 29 24 20 13 12 14 15 22 29 31 32 32 32 33 31 29 26 22 19 17 18 19 14 9 8 8 8 9 8 7 6 6 6 6 6 7 7 10 15 18 17
26 22 19 18 15 12 12 13 12 11 13 14 13 13 13 12 13 13 12 13 14 11 7 8 9 9 9 11 13 12 10 10 9 6 5 3 3 10 13 12 16 20 21 25 27 25 24 24 27 24 14 13 14 13 19 29 32 30 28 30 32 31 30 28 25 24 19 17 21 20 12 7 9 11 11 9 7 5 4 4 5 6 6 5 6 11 16 16
24 19 19 19 12 9 12 13 11 11 13 14 14 13 13 14 15 14 13 12 14 14 10 8 7 7 9 9 11 13 13 11 10 6 4 4 3 7 11 10 11 15 18 21 26 27 21 16 24 27 17 11 10 9 15 23 27 30 30 28 29 31 31 30 27 26 21 18 23 25 18 11 9 11 10 8 8 5 4 4 4 4 5 4 4 8 12 12
20 16 19 21 14 9 12 11 9 11 12 13 14 13 13 14 15 15 13 10 12 13 12 9 6 4 7 8 7 9 12 11 10 7 5 4 2 4 8 8 7 10 12 14 20 23 16 13 24 30 20 10 6 5 13 20 20 23 27 28 29 29 30 33 31 26 20 18 21 22 21 20 15 12 10 8 6 6 7 6 6 6 7 6 6 7 9 10
17 14 16 18 15 13 14 12 10 12 12 13 12 11 12 13 14 15 14 11 11 11 11 11 8 5 6 7 7 6 7 11 11 9 6 4 2 1 3 4 6 7 7 8 14 19 13 9 18 24 19 16 11 5 11 18 18 18 20 21 25 27 29 32 32 27 24 22 19 16 18 22 22 19 16 13 10 10 9 8 9 10 9 8 8 8 8 11
18 16 16 15 15 14 14 13 12 12 13 13 10 9 11 13 13 13 13 13 11 10 10 10 8 7 7 6 7 5 5 6 7 5 3 4 3 2 3 4 6 6 3 2 7 16 13 5 9 12 10 11 12 9 10 14 17 20 21 19 20 23 25 25 25 26 27 27 23 20 19 20 20 21 23 21 19 17 16 15 15 15 14 12 11 9 10 11
19 18 17 17 16 14 13 13 12 12 12 11 9 9 10 12 13 13 13 13 11 9 9 8 7 6 7 7 7 6 5 5 4 2 3 3 3 3 4 5 4 5 3 1 3 10 9 3 5 7 7 9 10 11 12 12 12 16 21 22 22 23 23 21 21 24 25 25 24 22 23 23 20 18 19 18 18 18 17 18 19 21 20 17 15 15 15 15
18 17 17 18 17 15 12 11 11 11 11 9 8 11 13 13 13 14 14 10 9 10 10 11 10 6 5 7 8 9 10 9 8 6 5 5 6 6 6 8 6 6 4 3 4 6 3 3 2 4 8 10 9 9 11 11 11 15 20 24 25 26 26 23 22 24 25 25 25 25 25 23 20 18 17 17 18 20 20 19 19 21 22 19 19 19 18 19
18 17 17 19 19 16 12 11 11 10 10 10 10 12 14 14 13 14 13 10 9 12 13 13 12 9 7 8 8 9 12 12 12 11 9 8 9 9 10 11 10 8 7 6 6 5 3 3 2 3 8 10 8 7 8 7 10 18 24 27 28 28 28 26 24 25 25 25 28 30 27 23 20 20 20 19 21 23 23 22 21 21 21 20 21 22 22 22
Wind_Direction
305 303 301 300 297 294 292 291 289 288 287 285 283 283 283 283 280 276 272 270 266 261 257 254 253 253 254 253 253 255 255 258 259 258 258 245 233 228 221 219 219 217 220 221 220 222 223 222 219 218 223 229 231 234 239 243 258 255 222 227 241 229 212 151 112 76 80 25 341 263 213 193 240 337 345 355 24 73 128 135 161 171 168 166 160 155 177 182
305 304 303 301 299 297 295 294 292 290 289 287 285 284 282 282 282 279 275 271 269 265 260 255 252 250 251 252 251 251 253 253 254 251 243 243 237 234 228 221 220 218 221 222 219 220 223 223 222 219 222 228 229 229 235 242 252 250 218 223 232 212 203 166 136 79 52 7 343 281 220 200 237 274 317 345 356 9 92 158 164 179 182 176 166 158 172 187
304 303 302 301 300 298 296 295 294 292 291 289 287 285 283 281 281 281 279 274 271 268 264 258 253 250 249 249 249 250 251 251 253 244 227 241 242 236 233 225 221 220 221 222 220 218 218 220 221 219 220 224 227 227 231 236 243 248 225 217 231 211 195 164 132 99 56 17 2 300 226 194 229 262 277 242 326 357 39 175 144 173 193 184 176 170 169 183
307 304 301 299 298 297 296 294 294 293 292 290 287 285 283 282 281 280 278 277 275 271 267 262 256 252 249 247 247 248 250 254 255 244 232 239 241 236 233 225 219 221 221 220 218 216 214 214 215 218 221 224 227 225 229 233 236 247 230 212 220 197 186 179 137 110 94 61 39 31 182 196 233 254 247 211 245 353 259 193 144 169 208 202 186 180 174 178
311 308 304 300 297 295 294 293 293 292 291 290 287 285 283 282 281 279 278 277 275 273 269 264 258 254 251 248 245 244 246 257 260 246 235 236 234 233 232 224 215 215 219 219 217 215 213 212 210 213 217 222 229 227 228 233 231 242 237 214 206 183 177 193 165 133 115 100 61 53 84 224 237 242 240 218 194 108 194 183 163 162 167 189 212 197 185 179
312 311 308 305 300 296 293 292 291 291 291 290 287 286 284 282 282 280 278 275 273 272 267 262 258 254 253 248 244 242 236 237 250 243 232 230 227 229 230 223 213 210 214 217 216 215 213 212 210 211 213 217 227 229 230 234 231 238 241 218 201 184 184 192 178 155 132 117 83 36 50 214 244 257 250 225 202 187 182 170 165 159 147 164 198 206 195 183
311 310 309 308 305 301 297 293 291 290 289 288 287 286 285 284 282 280 277 274 270 266 263 260 256 253 253 251 245 242 237 228 232 234 225 223 220 221 223 220 215 210 212 214 214 214 213 213 213 213 213 215 223 226 228 233 233 236 235 223 210 192 188 194 189 169 157 156 179 273 37 325 323 296 248 224 213 215 207 179 171 165 144 145 166 187 203 194
312 311 310 308 306 304 302 298 294 291 288 286 285 285 285 284 282 280 277 273 268 262 261 258 255 254 254 254 248 244 243 220 215 224 219 211 209 212 215 215 215 212 213 214 214 213 213 215 215 214 214 216 222 223 225 229 234 236 230 225 221 205 198 206 208 200 218 239 259 300 28 325 315 282 240 217 221 228 221 211 199 183 162 143 156 174 197 201
315 313 312 309 307 305 303 302 300 296 291 287 284 284 284 283 281 279 277 272 267 262 261 259 256 256 255 255 253 248 233 194 206 218 215 206 207 213 214 213 214 215 216 216 215 213 214 216 215 216 215 216 221 223 226 226 233 242 236 231 228 213 211 218 215 218 242 251 270 295 324 302 294 282 236 201 214 228 219 219 223 219 204 162 167 174 181 194
321 319 316 313 310 307 305 304 303 302 297 291 287 285 283 281 279 277 276 271 267 264 261 261 257 255 255 252 251 238 202 200 208 215 215 212 215 218 215 211 210 214 218 217 215 213 212 213 214 219 216 215 221 223 226 222 224 240 241 237 233 221 221 224 219 225 243 245 257 279 281 279 271 271 229 201 222 230 220 225 228 230 226 205 185 184 181 186
326 325 322 318 315 311 309 307 306 304 300 297 293 289 285 281 278 276 275 270 268 265 260 259 256 254 253 251 247 227 209 213 211 213 216 214 216 217 214 212 210 213 218 219 217 214 212 209 211 219 217 217 222 224 228 225 222 234 241 244 240 232 232 230 222 225 235 236 249 271 274 266 255 256 217 212 252 250 234 233 228 231 234 227 213 204 195 188
328 327 325 322 319 315 313 313 311 307 303 299 296 294 290 283 278 276 273 271 268 265 261 257 254 252 250 249 245 221 218 219 215 215 216 213 211 211 212 213 212 213 216 218 217 212 209 208 209 214 216 220 222 225 231 229 226 232 239 244 247 247 245 238 227 229 234 232 238 263 267 257 250 256 239 248 307 317 267 251 233 234 239 237 229 222 213 201
326 325 324 322 320 317 316 316 315 312 307 302 299 297 293 288 282 277 272 270 268 265 262 258 253 251 249 246 228 219 222 221 220 217 216 216 211 210 214 216 214 211 205 205 210 210 207 210 211 208 211 217 220 223 227 230 230 232 239 244 250 255 248 238 228 230 235 233 233 249 253 239 243 261 255 267 310 328 300 268 243 240 243 243 238 233 228 219
323 323 321 320 318 316 315 316 317 315 311 306 302 299 296 291 285 280 274 269 267 266 263 259 254 250 249 244 220 224 228 224 222 218 215 214 212 212 215 216 215 210 201 191 191 203 207 211 210 204 210 210 212 226 224 229 234 230 238 242 243 247 238 225 221 224 227 235 237 239 241 227 227 248 246 271 298 313 311 277 247 241 243 246 244 239 235 234
320 320 318 317 316 314 313 315 315 314 312 309 305 302 299 294 288 283 277 271 267 264 262 259 256 253 252 244 223 226 229 226 222 217 214 209 208 210 210 213 215 211 203 192 188 194 201 206 204 199 209 209 206 221 219 223 233 224 226 232 231 233 227 214 223 225 217 229 240 232 235 232 222 224 234 265 288 307 315 286 251 239 238 243 246 244 239 238
316 316 315 314 313 311 311 312 312 313 312 309 306 304 301 298 292 286 280 275 269 264 261 259 256 254 253 246 228 226 230 227 219 215 213 206 202 202 202 206 211 206 197 191 189 190 194 200 200 198 205 212 210 210 211 218 224 218 220 227 225 223 223 218 225 229 216 219 235 230 230 230 221 215 230 261 283 299 313 301 263 243 236 236 241 246 243 238
313 312 312 311 310 308 307 308 308 309 309 308 306 304 303 300 295 290 284 277 271 266 262 258 255 253 253 248 232 226 227 221 214 216 212 204 201 200 199 199 204 203 191 185 186 184 190 194 199 202 203 212 212 206 210 216 214 212 218 225 226 219 219 217 217 227 223 222 230 231 233 232 231 236 248 268 280 285 303 309 274 251 242 237 235 240 243 240
311 310 309 309 308 305 304 305 304 306 306 304 303 302 302 300 297 292 287 280 274 270 265 259 253 252 254 250 239 230 226 218 214 217 211 202 201 200 198 197 200 199 188 184 185 185 191 195 199 206 208 210 208 205 211 213 211 212 213 219 224 221 222 220 215 220 222 225 230 230 235 236 239 248 256 269 273 274 292 299 270 249 244 243 237 236 240 241
312 310 309 308 308 305 303 302 302 302 302 301 300 300 298 298 297 293 288 283 277 270 265 258 249 245 248 246 238 231 226 219 215 217 213 203 200 199 196 194 198 200 192 187 189 191 191 193 201 208 210 210 207 207 212 213 215 218 217 219 222 224 228 226 223 225 222 226 233 236 241 243 245 245 249 266 269 266 280 289 279 256 239 241 241 235 236 239
314 312 311 310 308 306 304 303 302 301 299 298 298 298 296 295 295 290 287 283 278 270 261 259 255 244 242 241 236 229 225 220 214 213 213 205 200 197 195 194 194 199 200 194 193 197 194 196 207 209 208 210 211 211 212 214 219 221 219 223 225 227 230 227 226 234 234 234 239 241 246 250 250 248 249 264 268 264 269 282 290 283 251 237 240 238 236 238
316 314 313 312 310 307 305 304 304 303 300 298 297 297 295 294 292 288 285 278 274 274 266 260 257 249 242 240 235 228 223 217 210 209 209 204 199 197 197 196 194 197 201 197 195 200 202 208 214 212 209 210 213 214 213 215 220 221 219 224 229 230 232 231 227 235 240 242 245 245 251 254 253 256 255 255 262 263 265 273 281 289 274 239 231 237 237 238
319 317 316 315 314 310 307 306 305 305 303 300 298 297 294 292 290 288 286 278 268 268 269 264 260 253 244 240 235 227 223 216 209 207 205 201 199 199 200 198 197 199 196 193 195 199 208 217 217 213 211 211 214 217 216 216 219 222 224 228 232 231 233 234 232 237 243 244 247 251 256 257 255 258 256 248 256 263 264 267 273 281 276 245 225 229 236 239
322 320 320 319 318 314 310 310 308 306 306 303 300 298 295 293 291 289 288 284 272 262 264 265 263 257 246 239 233 227 223 215 210 209 204 201 200 199 202 201 199 199 195 194 196 198 209 221 219 212 212 213 214 214 211 214 220 224 226 230 232 231 230 231 230 234 242 244 248 253 260 261 258 256 255 252 257 262 263 264 268 271 271 257 234 226 230 239
325 323 323 322 322 319 314 314 312 309 307 304 301 299 296 294 292 289 288 288 281 269 265 262 258 258 251 241 232 227 226 219 214 213 207 204 202 198 203 205 199 198 200 200 201 204 213 222 217 211 212 212 212 211 210 215 223 228 228 229 231 231 229 232 228 221 235 244 248 253 262 262 256 253 256 255 253 258 260 261 262 261 264 268 254 232 223 231
325 324 325 324 324 322 318 317 316 312 308 304 301 297 295 295 294 290 291 294 289 278 270 263 256 253 248 240 232 225 225 223 218 216 212 207 203 200 202 205 202 202 205 204 206 214 219 222 216 208 209 212 212 215 218 218 224 229 230 229 230 232 232 234 233 232 240 244 243 243 254 257 249 248 253 246 239 249 257 259 258 256 258 265 261 241 227 224
326 325 327 326 325 325 321 318 317 313 311 306 299 293 292 295 292 291 297 298 291 283 274 264 254 244 239 236 230 219 222 226 219 214 215 209 203 201 201 203 204 206 208 205 210 220 221 222 220 207 206 213 217 221 222 217 222 229 231 231 231 231 233 234 232 236 243 246 242 231 240 256 253 247 244 234 232 245 255 256 254 251 252 258 258 243 229 222
327 326 327 329 327 327 324 319 317 316 315 310 300 293 291 291 288 294 304 295 282 276 264 250 235 232 231 230 224 211 213 225 218 213 214 209 203 201 202 203 205 207 206 203 213 222 217 213 215 208 205 213 217 220 219 212 219 227 229 230 229 227 228 231 233 239 246 251 248 230 234 256 258 247 237 231 232 238 248 251 250 248 248 251 253 247 236 226
327 326 327 330 329 329 329 324 321 319 316 312 301 291 287 281 275 287 302 282 247 230 246 235 222 223 222 222 218 205 206 215 216 216 214 210 205 203 203 205 207 209 203 201 213 219 213 209 211 207 204 210 216 217 214 210 216 223 223 225 225 222 225 229 236 243 246 250 246 233 231 247 255 249 242 239 236 231 241 251 250 247 244 244 245 250 264 245
326 324 325 328 329 329 330 327 323 318 315 313 300 286 277 265 253 254 262 253 230 220 234 223 215 217 214 217 212 202 205 207 210 215 210 209 209 205 206 206 208 212 208 208 215 217 213 215 216 210 207 213 217 214 211 211 216 219 218 220 217 216 223 228 234 241 244 246 244 236 230 239 253 250 241 236 234 232 240 249 251 248 244 241 241 244 264 260
323 321 321 324 326 327 328 327 325 319 315 312 300 283 264 244 226 220 230 227 215 225 227 213 203 204 208 213 210 205 204 202 210 214 201 204 209 208 208 208 208 216 215 215 220 219 220 222 217 213 217 220 218 212 211 212 215 215 213 213 214 218 224 227 230 234 241 244 241 236 230 236 255 251 239 233 232 239 244 243 243 246 245 240 238 239 252 261
321 319 319 320 322 324 325 327 327 321 316 311 301 282 251 231 220 219 227 220 212 219 218 209 203 199 200 201 207 215 207 201 208 211 195 197 203 204 205 204 205 212 216 217 221 221 222 223 215 216 224 221 212 213 212 210 212 209 208 211 215 215 214 219 221 220 232 243 237 234 230 232 246 246 239 235 234 240 246 240 231 239 246 243 238 238 247 255
322 319 319 319 320 321 322 324 327 323 317 309 300 276 235 227 224 223 234 245 231 213 185 197 207 202 201 197 198 212 208 203 206 206 197 195 197 201 202 199 196 199 207 212 214 217 220 222 216 217 225 217 204 208 207 203 206 205 205 207 206 199 195 206 210 213 230 240 232 229 225 228 241 245 240 236 233 233 241 242 234 234 242 246 241 238 244 247
323 320 319 318 319 321 321 322 325 324 320 307 298 270 225 231 231 227 237 252 281 235 200 212 215 202 201 204 203 203 202 205 207 205 200 195 196 202 204 202 199 198 205 207 204 210 216 221 216 211 218 215 205 202 200 198 200 202 201 201 201 197 191 203 209 216 230 234 227 219 220 234 246 250 243 236 234 230 236 241 240 235 235 244 244 239 241 243
326 323 321 319 319 319 320 320 320 322 320 303 294 271 228 233 242 249 249 255 272 254 233 240 219 203 206 212 212 203 196 203 204 199 197 195 197 203 203 204 205 205 210 208 205 206 207 214 213 205 207 213 208 204 202 198 197 201 201 202 208 210 209 208 210 222 228 228 217 202 207 235 242 249 243 234 233 236 242 245 246 243 236 241 247 242 239 239
330 327 324 322 320 319 321 319 317 317 315 303 288 263 238 238 246 267 285 283 287 272 254 250 237 231 235 222 220 206 188 194 200 196 196 197 199 203 203 204 206 206 209 211 208 207 211 219 214 206 207 211 207 205 203 198 198 201 201 206 213 212 214 226 235 239 236 232 214 203 212 229 233 242 240 221 221 228 239 245 245 246 241 238 243 242 237 235
334 331 327 324 323 323 321 317 315 312 308 303 284 257 246 246 256 280 305 305 305 304 281 263 249 250 245 222 222 216 192 193 197 195 199 200 201 205 203 205 206 205 209 214 210 204 211 221 210 201 205 208 207 204 200 197 196 196 200 209 213 209 214 228 242 248 241 245 222 210 222 234 243 254 244 223 218 216 224 232 233 240 241 235 236 238 236 233
336 334 330 328 326 322 318 316 314 307 308 301 272 259 257 255 267 289 311 309 303 320 316 289 265 251 245 224 210 209 207 206 198 199 201 196 199 202 197 198 201 202 206 211 212 207 209 214 201 193 197 203 204 201 200 203 199 192 201 207 205 205 218 228 233 227 221 239 233 222 230 233 233 247 238 223 226 224 225 230 229 229 230 229 232 234 234 234
339 336 333 332 326 320 317 316 313 307 311 297 265 265 269 266 274 285 302 309 298 304 311 292 277 282 278 255 231 218 227 214 197 201 202 194 199 205 199 197 198 200 204 204 204 208 208 206 193 190 196 198 195 194 200 206 207 205 206 201 194 199 209 212 220 225 218 231 238 229 233 234 229 232 224 216 222 224 226 231 231 227 229 237 238 233 231 232
340 338 336 333 325 320 317 315 316 315 307 284 269 274 276 278 286 289 295 303 294 286 288 281 272 276 286 289 302 296 242 220 201 206 205 196 204 209 202 201 202 204 205 202 199 199 203 206 195 188 195 192 189 197 201 201 204 209 211 203 200 205 207 204 211 220 225 235 240 229 230 238 238 233 228 222 215 215 218 224 230 229 230 240 245 241 236 234
341 340 336 331 327 323 322 322 325 324 303 279 275 283 290 292 295 297 297 296 290 273 268 274 273 271 276 285 299 293 262 260 234 220 214 199 199 208 204 202 204 206 206 204 203 204 208 215 209 181 186 191 194 201 202 196 196 200 205 204 201 204 209 210 214 218 227 238 242 238 232 238 244 233 229 229 223 222 223 222 227 227 225 230 236 239 240 239
346 346 335 330 333 332 333 338 334 321 306 293 293 296 298 300 298 300 303 293 283 271 262 268 272 272 276 278 285 288 279 281 253 235 248 199 181 193 205 205 206 207 207 205 206 210 210 211 212 189 183 196 202 202 201 200 197 197 201 203 199 200 202 204 211 215 224 235 238 245 248 246 221 159 178 203 214 224 227 223 225 228 225 223 221 224 231 233
351 349 337 334 338 340 344 348 335 334 330 317 322 320 309 308 303 300 303 292 278 269 261 263 265 266 272 271 271 274 275 283 264 240 260 190 180 175 193 203 203 198 200 202 205 210 208 203 210 205 194 202 209 204 200 201 201 202 205 204 202 203 203 204 206 204 215 229 235 243 254 251 206 161 158 191 214 215 219 218 222 226 226 225 219 216 220 223
353 350 346 343 343 350 359 352 339 346 346 336 336 330 316 311 307 303 305 296 279 267 254 254 259 260 264 263 262 265 262 269 266 236 231 198 204 198 185 190 190 179 182 192 198 208 208 202 207 213 208 207 207 201 202 203 204 208 210 208 207 209 207 210 216 213 216 223 223 229 241 237 222 208 215 232 201 184 197 202 208 218 222 224 221 215 212 214
354 355 355 351 348 1 10 354 347 347 341 342 343 334 327 324 317 313 310 297 286 275 246 239 245 251 261 265 259 257 253 251 255 238 222 220 213 204 185 175 177 168 169 184 186 194 202 204 207 210 202 195 194 194 201 205 208 211 212 209 210 212 211 213 220 225 230 226 217 220 233 225 206 182 166 162 163 171 189 195 202 210 207 213 221 215 209 210
358 357 358 356 356 6 4 350 350 348 338 340 343 336 337 340 331 320 310 297 291 289 264 245 246 244 257 267 257 248 247 249 256 253 224 212 205 200 184 169 176 176 177 187 185 183 191 200 205 208 207 200 196 192 196 201 206 209 210 209 210 211 210 212 217 222 226 225 222 226 229 200 164 159 158 164 176 179 176 189 209 212 196 189 203 208 210 215
1 357 354 359 7 8 355 347 346 344 337 335 338 337 338 341 338 330 320 309 299 291 279 274 271 248 242 246 243 240 240 242 250 249 222 222 238 213 196 179 176 178 181 186 184 182 186 193 200 208 222 217 191 180 189 194 199 205 207 208 208 209 210 211 216 219 219 223 229 230 226 208 177 168 173 176 177 183 203 213 224 226 213 206 196 193 200 210
3 359 350 354 0 349 340 341 338 336 336 334 332 331 334 337 338 337 333 327 317 301 286 288 303 270 234 219 214 233 234 229 234 239 234 239 267 233 219 209 190 174 168 173 176 177 184 200 203 209 223 224 185 164 184 185 188 199 205 208 208 208 209 213 218 220 217 223 233 230 224 223 214 188 177 186 202 228 244 247 243 233 227 222 204 193 199 204
358 359 350 346 342 331 331 339 339 335 332 329 326 325 330 333 337 340 336 331 331 322 304 301 309 303 264 219 202 221 227 223 227 230 238 266 300 260 247 251 232 201 160 158 170 169 172 201 205 208 224 228 216 202 188 185 185 188 193 201 206 207 211 216 221 223 221 226 235 231 223 226 228 226 230 241 246 243 243 250 243 231 229 223 203 199 212 205
348 349 346 340 332 326 331 339 341 337 329 323 325 328 329 331 334 336 336 334 332 322 313 313 310 303 295 251 218 207 195 211 225 227 245 274 293 289 253 249 254 242 196 169 176 166 164 190 205 205 230 233 220 217 200 195 200 199 197 199 203 208 215 221 225 227 228 233 239 240 238 237 236 239 246 251 253 254 252 253 252 245 245 243 235 233 227 216
343 340 336 334 332 328 331 333 330 330 326 322 326 325 323 330 330 327 333 333 318 299 302 315 310 293 285 276 267 250 225 223 237 281 315 272 245 273 249 228 269 283 250 263 214 174 169 230 233 215 235 229 219 222 215 210 217 218 215 215 214 214 219 223 225 226 230 236 238 241 246 246 240 242 250 250 248 251 250 251 255 253 246 240 247 258 249 236
338 335 329 327 330 331 330 325 320 323 324 318 317 315 315 320 322 324 332 330 309 309 324 330 326 312 276 276 282 268 258 259 254 261 286 268 246 255 242 230 263 288 278 287 262 203 193 307 278 220 230 220 204 208 218 228 241 241 233 225 220 221 224 225 227 228 231 235 238 241 245 245 242 245 252 251 245 246 251 255 259 259 253 243 243 252 249 236
333 333 330 324 325 330 330 320 315 315 310 307 310 311 312 313 314 322 329 323 316 325 328 323 319 314 292 281 281 271 266 267 264 261 262 251 242 242 236 236 251 267 267 270 267 257 283 300 275 219 224 212 188 195 220 238 245 243 238 229 223 223 225 226 228 229 230 231 235 241 245 249 252 252 252 255 255 255 258 260 260 261 262 252 239 235 233 230
Height
3155 3154 3153 3153 3152 3151 3150 3149 3148 3148 3147 3146 3146 3145 3145 3144 3144 3144 3143 3143 3143 3143 3143 3143 3144 3145 3145 3145 3146 3147 3147 3147 3147 3148 3148 3148 3148 3148 3150 3151 3153 3155 3156 3158 3161 3163 3165 3167 3169 3170 3171 3172 3172 3173 3174 3174 3174 3173 3175 3177 3178 3178 3178 3178 3178 3178 3178 3179 3179 3178 3179 3180 3180 3179 3179 3179 3179 3179 3179 3180 3180 3180 3181 3181 3181 3182 3183 3184
3154 3153 3152 3151 3150 3149 3148 3147 3147 3146 3145 3145 3144 3144 3143 3143 3143 3142 3142 3142 3141 3141 3140 3141 3141 3142 3142 3143 3144 3144 3145 3145 3145 3147 3147 3146 3147 3147 3148 3149 3151 3154 3155 3157 3160 3162 3164 3166 3168 3169 3170 3171 3172 3173 3173 3173 3173 3173 3175 3177 3177 3178 3177 3177 3177 3177 3178 3179 3178 3178 3178 3179 3180 3179 3179 3180 3180 3180 3180 3180 3180 3180 3181 3181 3181 3182 3183 3184
3152 3151 3150 3149 3148 3147 3146 3145 3145 3144 3143 3143 3142 3142 3142 3141 3141 3141 3140 3140 3139 3139 3138 3139 3139 3140 3140 3141 3142 3142 3143 3143 3143 3145 3146 3145 3146 3146 3147 3148 3150 3152 3154 3156 3159 3161 3163 3165 3167 3168 3169 3170 3171 3172 3172 3173 3173 3173 3174 3176 3177 3177 3176 3176 3176 3177 3177 3177 3178 3178 3178 3179 3179 3178 3179 3180 3180 3180 3180 3180 3180 3181 3181 3181 3182 3182 3183 3184
3150 3149 3148 3147 3146 3145 3144 3144 3143 3142 3141 3141 3140 3140 3140 3139 3139 3139 3138 3138 3138 3137 3137 3137 3137 3137 3138 3138 3140 3140 3141 3141 3142 3143 3144 3143 3144 3145 3145 3147 3149 3151 3153 3155 3157 3159 3161 3163 3165 3167 3168 3169 3170 3171 3171 3172 3173 3173 3173 3175 3176 3176 3176 3177 3176 3176 3176 3176 3177 3177 3177 3178 3179 3178 3179 3181 3181 3181 3181 3181 3180 3180 3181 3181 3182 3183 3183 3184
3148 3147 3146 3145 3144 3143 3142 3141 3141 3140 3139 3139 3138 3138 3138 3138 3137 3137 3137 3136 3136 3136 3135 3135 3136 3136 3135 3136 3137 3138 3139 3141 3140 3140 3141 3142 3142 3143 3143 3145 3147 3149 3150 3152 3154 3156 3159 3161 3163 3164 3166 3168 3168 3169 3170 3171 3172 3172 3172 3173 3174 3174 3176 3176 3175 3175 3175 3176 3177 3177 3178 3178 3178 3178 3179 3180 3182 3182 3182 3181 3181 3180 3180 3181 3182 3183 3183 3184
3146 3145 3144 3143 3142 3141 3140 3139 3139 3138 3137 3136 3136 3136 3136 3135 3135 3135 3135 3134 3134 3134 3134 3134 3134 3134 3133 3134 3135 3135 3137 3138 3137 3137 3139 3139 3140 3141 3142 3143 3145 3146 3148 3150 3152 3154 3156 3158 3160 3162 3164 3167 3167 3168 3170 3171 3171 3171 3172 3173 3173 3173 3174 3175 3174 3174 3175 3175 3177 3177 3178 3178 3178 3178 3179 3180 3181 3182 3182 3181 3181 3181 3180 3180 3181 3182 3184 3184
3144 3143 3142 3141 3140 3139 3138 3137 3136 3136 3135 3134 3133 3133 3133 3133 3133 3133 3132 3132 3132 3132 3132 3132 3132 3132 3132 3131 3132 3133 3134 3135 3136 3135 3136 3137 3138 3139 3140 3141 3143 3144 3145 3147 3149 3151 3154 3156 3158 3161 3164 3165 3166 3168 3169 3169 3170 3170 3171 3172 3172 3173 3173 3173 3173 3174 3174 3175 3176 3176 3177 3177 3177 3178 3179 3179 3180 3181 3181 3181 3181 3181 3181 3180 3181 3182 3183 3185
3142 3141 3140 3138 3137 3136 3136 3135 3134 3134 3133 3132 3131 3131 3131 3131 3131 3130 3130 3130 3130 3130 3130 3130 3130 3130 3130 3130 3130 3130 3131 3134 3134 3133 3135 3136 3137 3137 3138 3140 3141 3142 3144 3145 3148 3150 3153 3155 3157 3160 3162 3164 3166 3167 3167 3168 3169 3168 3170 3171 3171 3172 3172 3173 3173 3173 3174 3174 3175 3175 3176 3177 3177 3177 3178 3179 3180 3179 3180 3181 3181 3181 3181 3181 3181 3182 3183 3184
3140 3139 3137 3136 3135 3134 3133 3133 3132 3131 3131 3129 3129 3129 3129 3129 3128 3128 3128 3127 3127 3127 3127 3127 3128 3128 3128 3128 3128 3128 3129 3131 3130 3130 3132 3134 3135 3135 3137 3138 3139 3141 3142 3144 3147 3149 3151 3153 3156 3159 3161 3163 3164 3165 3166 3167 3168 3167 3168 3170 3170 3171 3171 3172 3172 3173 3173 3174 3174 3175 3175 3176 3176 3176 3177 3178 3179 3179 3179 3180 3181 3181 3181 3181 3181 3182 3182 3183
3138 3137 3136 3134 3133 3132 3131 3130 3129 3129 3128 3127 3126 3126 3126 3126 3126 3126 3125 3125 3125 3125 3125 3125 3126 3126 3126 3126 3126 3126 3127 3127 3127 3128 3130 3132 3133 3134 3135 3137 3138 3139 3141 3143 3145 3147 3149 3152 3156 3158 3160 3162 3162 3163 3164 3166 3167 3166 3167 3168 3168 3170 3170 3170 3171 3172 3173 3173 3174 3174 3175 3176 3176 3175 3176 3178 3178 3178 3178 3179 3180 3181 3181 3181 3181 3182 3182 3183
3137 3135 3134 3132 3131 3130 3129 3128 3127 3126 3125 3124 3124 3124 3124 3124 3123 3123 3123 3123 3122 3123 3123 3123 3123 3123 3123 3123 3124 3125 3125 3125 3125 3126 3128 3130 3131 3133 3134 3135 3137 3138 3139 3141 3143 3146 3149 3152 3155 3156 3158 3159 3160 3162 3162 3163 3165 3165 3166 3167 3167 3168 3168 3169 3170 3171 3172 3172 3173 3173 3174 3174 3174 3174 3175 3177 3177 3177 3177 3178 3179 3179 3180 3181 3181 3182 3182 3183
3135 3133 3132 3130 3129 3127 3127 3126 3125 3124 3123 3122 3121 3121 3121 3121 3120 3121 3120 3120 3120 3120 3120 3121 3121 3121 3121 3121 3122 3123 3123 3123 3124 3125 3126 3128 3129 3131 3132 3133 3135 3136 3138 3140 3142 3146 3149 3151 3151 3153 3156 3157 3159 3161 3160 3161 3163 3164 3164 3165 3166 3167 3167 3168 3169 3170 3170 3171 3172 3172 3172 3172 3172 3172 3174 3175 3176 3176 3176 3177 3177 3178 3179 3180 3181 3181 3182 3182
3133 3131 3130 3128 3126 3125 3124 3124 3123 3122 3121 3119 3118 3118 3118 3118 3118 3118 3117 3117 3117 3117 3118 3118 3118 3118 3118 3118 3120 3120 3119 3120 3122 3123 3124 3126 3127 3129 3130 3131 3133 3134 3136 3138 3142 3145 3147 3148 3149 3152 3154 3156 3159 3159 3157 3159 3161 3162 3163 3164 3165 3166 3165 3166 3168 3169 3169 3170 3171 3172 3172 3170 3170 3171 3173 3174 3174 3175 3175 3175 3176 3177 3178 3179 3180 3180 3181 3181
3131 3129 3128 3126 3124 3123 3122 3122 3121 3120 3119 3117 3116 3115 3115 3115 3115 3114 3114 3114 3114 3115 3115 3115 3115 3115 3115 3116 3118 3117 3117 3118 3119 3120 3122 3124 3125 3127 3128 3130 3131 3133 3134 3135 3139 3141 3144 3145 3148 3151 3152 3154 3157 3155 3156 3159 3159 3161 3163 3163 3164 3165 3164 3165 3166 3167 3168 3169 3169 3171 3171 3170 3170 3171 3171 3173 3173 3173 3174 3174 3175 3176 3176 3177 3178 3179 3180 3181
3129 3127 3125 3124 3122 3120 3119 3119 3119 3118 3116 3115 3114 3113 3112 3112 3111 3112 3111 3111 3112 3112 3112 3112 3112 3112 3112 3114 3115 3115 3115 3116 3117 3119 3120 3122 3124 3125 3127 3128 3129 3131 3132 3133 3135 3137 3140 3143 3145 3148 3149 3151 3153 3153 3156 3159 3158 3160 3161 3161 3162 3163 3163 3163 3163 3164 3167 3168 3167 3169 3170 3169 3170 3171 3171 3171 3172 3172 3172 3172 3173 3174 3175 3176 3177 3178 3179 3180
3126 3125 3123 3121 3119 3117 3117 3117 3116 3115 3114 3113 3112 3111 3110 3109 3108 3108 3108 3108 3108 3108 3109 3109 3109 3110 3109 3110 3112 3112 3113 3114 3116 3116 3117 3119 3122 3123 3125 3126 3127 3129 3130 3132 3133 3135 3138 3140 3143 3145 3147 3148 3149 3152 3156 3157 3156 3158 3158 3158 3159 3160 3161 3162 3161 3162 3165 3166 3166 3167 3168 3169 3169 3170 3170 3169 3170 3171 3171 3171 3171 3172 3173 3174 3175 3176 3178 3179
3124 3122 3121 3119 3116 3114 3113 3113 3113 3112 3111 3110 3109 3108 3107 3106 3105 3105 3105 3105 3105 3105 3106 3106 3106 3106 3106 3107 3109 3109 3110 3112 3113 3113 3115 3118 3119 3121 3122 3124 3126 3127 3129 3130 3132 3134 3136 3138 3140 3142 3144 3145 3147 3150 3152 3150 3151 3153 3155 3156 3157 3157 3159 3159 3159 3160 3162 3164 3165 3165 3166 3167 3168 3168 3167 3167 3168 3169 3170 3170 3170 3170 3171 3172 3174 3175 3176 3177
3121 3120 3118 3116 3114 3110 3109 3109 3109 3109 3108 3106 3106 3105 3104 3103 3102 3102 3102 3101 3102 3102 3102 3102 3103 3103 3104 3104 3105 3107 3107 3109 3110 3110 3113 3115 3116 3119 3121 3123 3125 3126 3127 3129 3130 3132 3133 3135 3138 3140 3140 3141 3142 3145 3143 3143 3147 3150 3152 3153 3155 3156 3157 3157 3158 3158 3159 3161 3163 3163 3164 3165 3167 3167 3166 3165 3166 3167 3168 3169 3168 3168 3169 3170 3172 3173 3174 3175
3117 3116 3115 3113 3111 3107 3105 3106 3105 3105 3105 3103 3102 3102 3101 3100 3099 3098 3098 3098 3098 3099 3098 3097 3099 3100 3100 3101 3102 3103 3104 3105 3107 3108 3110 3112 3114 3116 3119 3121 3123 3124 3125 3126 3128 3129 3131 3134 3135 3134 3134 3134 3136 3138 3140 3143 3147 3148 3150 3151 3152 3154 3154 3156 3157 3156 3157 3159 3160 3161 3161 3162 3164 3165 3164 3163 3163 3165 3166 3167 3167 3167 3167 3169 3170 3171 3173 3174
3113 3112 3111 3110 3108 3104 3102 3101 3101 3101 3101 3099 3098 3097 3097 3097 3096 3094 3095 3095 3094 3094 3094 3093 3095 3097 3097 3098 3099 3100 3101 3102 3104 3105 3107 3109 3111 3113 3116 3118 3120 3122 3123 3124 3126 3127 3129 3130 3128 3126 3129 3132 3134 3137 3140 3144 3146 3146 3148 3149 3150 3152 3152 3154 3156 3154 3155 3157 3157 3158 3159 3160 3161 3162 3163 3161 3160 3163 3164 3165 3165 3166 3166 3167 3168 3169 3171 3172
3109 3108 3107 3106 3104 3101 3098 3097 3097 3097 3096 3095 3094 3093 3093 3093 3092 3090 3090 3091 3091 3090 3090 3090 3090 3092 3094 3095 3095 3097 3098 3099 3100 3101 3103 3106 3109 3111 3112 3114 3116 3117 3119 3123 3126 3126 3127 3124 3121 3123 3128 3132 3134 3136 3139 3142 3143 3144 3146 3147 3148 3149 3150 3152 3154 3152 3153 3155 3155 3157 3157 3157 3158 3159 3161 3160 3158 3159 3162 3163 3163 3164 3164 3165 3166 3168 3169 3170
3107 3105 3104 3103 3101 3098 3095 3094 3093 3093 3092 3091 3090 3090 3089 3089 3088 3087 3085 3085 3088 3087 3085 3086 3085 3086 3090 3091 3092 3094 3094 3095 3097 3097 3100 3103 3105 3106 3108 3110 3112 3113 3117 3121 3123 3123 3121 3117 3119 3125 3128 3131 3133 3135 3137 3139 3141 3142 3144 3145 3145 3146 3148 3150 3151 3150 3151 3153 3153 3155 3154 3153 3155 3156 3157 3158 3156 3156 3159 3161 3162 3162 3162 3162 3163 3165 3167 3168
3104 3102 3101 3100 3099 3096 3093 3091 3090 3089 3088 3087 3086 3085 3085 3085 3085 3083 3081 3079 3082 3083 3082 3082 3081 3081 3086 3087 3088 3089 3089 3092 3093 3093 3097 3098 3100 3103 3105 3106 3109 3112 3114 3115 3116 3116 3114 3113 3118 3124 3126 3129 3131 3132 3134 3136 3138 3139 3141 3142 3141 3143 3146 3147 3148 3148 3149 3151 3152 3153 3152 3150 3152 3153 3153 3154 3153 3153 3156 3158 3159 3160 3160 3161 3162 3162 3164 3165
3100 3099 3098 3097 3096 3094 3091 3089 3087 3085 3085 3084 3083 3082 3081 3082 3081 3079 3077 3074 3074 3077 3079 3078 3076 3077 3080 3082 3083 3083 3085 3089 3090 3090 3093 3093 3096 3100 3102 3104 3107 3110 3110 3110 3112 3112 3111 3113 3118 3121 3124 3126 3128 3129 3131 3133 3135 3135 3137 3138 3139 3142 3145 3145 3146 3147 3147 3148 3149 3151 3150 3147 3148 3150 3150 3152 3151 3150 3153 3154 3156 3157 3158 3159 3160 3160 3161 3162
3097 3095 3094 3093 3093 3092 3089 3087 3085 3083 3082 3081 3080 3079 3078 3078 3078 3076 3075 3071 3067 3070 3073 3072 3072 3073 3074 3075 3077 3079 3082 3083 3084 3087 3088 3090 3094 3097 3099 3102 3105 3106 3106 3109 3111 3111 3112 3115 3115 3118 3121 3122 3124 3126 3128 3130 3132 3133 3133 3134 3138 3141 3143 3144 3145 3145 3146 3146 3147 3150 3147 3142 3144 3147 3147 3149 3148 3147 3149 3151 3153 3155 3156 3156 3157 3158 3159 3160
3094 3092 3092 3090 3089 3089 3087 3084 3083 3081 3079 3079 3077 3076 3075 3075 3076 3074 3073 3070 3064 3064 3066 3066 3066 3067 3068 3069 3071 3076 3078 3076 3080 3085 3083 3086 3091 3094 3097 3099 3100 3103 3105 3109 3110 3108 3110 3113 3112 3115 3118 3119 3121 3123 3124 3127 3130 3129 3130 3133 3136 3139 3141 3142 3143 3144 3143 3143 3145 3147 3144 3139 3140 3142 3143 3145 3145 3144 3146 3148 3150 3152 3153 3154 3154 3155 3156 3157
3091 3088 3088 3088 3085 3085 3085 3082 3081 3078 3077 3076 3074 3073 3074 3073 3074 3073 3073 3070 3062 3059 3060 3060 3061 3061 3062 3064 3066 3072 3073 3071 3076 3079 3078 3083 3087 3090 3094 3095 3096 3099 3103 3107 3106 3102 3105 3110 3109 3111 3115 3117 3118 3119 3121 3125 3126 3126 3129 3132 3133 3135 3138 3139 3141 3142 3141 3142 3143 3143 3144 3140 3136 3137 3140 3142 3142 3142 3142 3144 3146 3148 3150 3152 3152 3153 3154 3155
3089 3085 3085 3085 3083 3081 3081 3079 3078 3076 3075 3074 3072 3071 3071 3071 3072 3072 3074 3070 3058 3054 3056 3056 3057 3057 3058 3060 3062 3066 3066 3067 3072 3072 3075 3081 3083 3085 3088 3090 3093 3095 3099 3101 3098 3097 3102 3105 3104 3106 3111 3113 3113 3115 3119 3122 3123 3125 3129 3129 3130 3133 3135 3137 3140 3139 3140 3141 3137 3137 3142 3138 3129 3131 3137 3138 3139 3139 3139 3141 3143 3145 3147 3149 3150 3151 3152 3153
3088 3083 3081 3082 3082 3080 3079 3077 3076 3075 3073 3071 3070 3069 3069 3070 3070 3071 3075 3069 3055 3052 3054 3054 3055 3055 3055 3057 3059 3061 3061 3065 3067 3067 3072 3077 3079 3082 3083 3087 3093 3095 3097 3097 3095 3099 3101 3101 3103 3105 3107 3109 3111 3114 3117 3119 3120 3124 3127 3126 3129 3131 3133 3136 3137 3137 3140 3135 3129 3132 3138 3133 3124 3126 3132 3133 3133 3135 3136 3139 3140 3142 3144 3146 3148 3150 3150 3151
3086 3083 3079 3078 3078 3078 3077 3075 3074 3072 3071 3070 3068 3067 3068 3069 3069 3071 3071 3062 3053 3051 3052 3052 3053 3053 3054 3055 3056 3057 3058 3061 3063 3063 3068 3072 3075 3080 3082 3087 3092 3094 3095 3095 3095 3098 3099 3099 3101 3102 3104 3107 3111 3113 3115 3117 3119 3123 3125 3125 3128 3129 3131 3134 3133 3136 3136 3125 3122 3129 3133 3132 3122 3119 3125 3127 3128 3130 3132 3137 3139 3139 3141 3143 3146 3147 3148 3149
3084 3081 3078 3076 3075 3075 3074 3073 3072 3070 3069 3068 3066 3065 3066 3067 3068 3067 3061 3052 3050 3051 3051 3051 3051 3051 3052 3054 3055 3055 3055 3058 3060 3061 3064 3066 3071 3075 3078 3082 3086 3089 3092 3090 3090 3095 3096 3096 3097 3098 3100 3105 3109 3111 3113 3115 3117 3121 3122 3124 3126 3126 3128 3130 3130 3133 3127 3115 3120 3125 3128 3131 3118 3110 3119 3124 3124 3127 3128 3132 3136 3136 3138 3140 3143 3145 3146 3147
3082 3079 3077 3074 3073 3072 3070 3070 3069 3068 3067 3066 3065 3064 3065 3065 3063 3059 3052 3048 3050 3049 3048 3049 3049 3049 3050 3050 3052 3052 3053 3055 3057 3058 3060 3061 3064 3066 3068 3072 3075 3079 3081 3081 3085 3090 3091 3091 3093 3096 3097 3100 3105 3108 3110 3112 3114 3117 3119 3121 3122 3121 3124 3125 3123 3123 3117 3113 3120 3122 3124 3123 3110 3107 3117 3120 3120 3124 3125 3128 3132 3134 3136 3137 3139 3142 3144 3145
3079 3077 3075 3072 3071 3069 3067 3066 3066 3065 3065 3064 3063 3062 3064 3063 3056 3051 3050 3050 3048 3045 3045 3046 3045 3046 3047 3048 3050 3050 3051 3053 3054 3056 3058 3060 3062 3063 3065 3068 3071 3072 3073 3078 3082 3084 3086 3089 3090 3091 3092 3094 3099 3102 3103 3106 3109 3111 3113 3115 3115 3114 3117 3119 3116 3114 3113 3113 3117 3120 3121 3115 3106 3108 3114 3114 3116 3120 3121 3124 3127 3131 3134 3134 3136 3139 3141 3142
3076 3074 3072 3070 3068 3066 3065 3064 3063 3062 3062 3062 3061 3061 3062 3058 3051 3049 3050 3048 3044 3042 3043 3043 3042 3044 3045 3047 3048 3047 3049 3051 3051 3053 3056 3057 3060 3061 3062 3066 3069 3071 3074 3077 3077 3077 3079 3079 3078 3082 3084 3086 3091 3096 3099 3102 3105 3107 3109 3112 3111 3109 3110 3111 3110 3109 3109 3110 3112 3117 3116 3108 3106 3107 3107 3108 3113 3115 3117 3120 3123 3127 3130 3131 3133 3135 3138 3140
3073 3071 3069 3067 3065 3063 3062 3061 3060 3059 3059 3059 3059 3060 3058 3054 3051 3050 3048 3044 3042 3041 3041 3041 3042 3043 3044 3045 3045 3044 3047 3047 3048 3051 3053 3053 3055 3056 3058 3061 3064 3068 3071 3071 3070 3072 3072 3070 3072 3076 3080 3082 3086 3092 3097 3100 3102 3103 3107 3108 3106 3106 3108 3107 3106 3105 3106 3106 3106 3109 3107 3103 3105 3104 3103 3106 3109 3111 3114 3117 3119 3123 3126 3129 3130 3131 3134 3137
3071 3069 3067 3065 3062 3061 3059 3058 3057 3057 3056 3056 3057 3056 3054 3052 3051 3049 3046 3043 3042 3041 3040 3041 3042 3043 3043 3043 3042 3043 3044 3044 3045 3048 3049 3051 3053 3054 3057 3059 3061 3064 3067 3066 3066 3067 3068 3069 3072 3074 3077 3080 3083 3088 3093 3095 3096 3099 3101 3100 3101 3105 3108 3106 3105 3105 3107 3104 3101 3101 3101 3102 3103 3101 3101 3104 3106 3108 3111 3113 3116 3119 3121 3125 3126 3128 3131 3133
3069 3067 3065 3063 3060 3058 3057 3056 3055 3054 3054 3054 3054 3053 3051 3050 3049 3047 3044 3043 3043 3043 3043 3043 3043 3041 3041 3041 3041 3042 3042 3042 3043 3044 3046 3048 3049 3050 3051 3052 3055 3057 3059 3060 3062 3064 3065 3067 3069 3070 3074 3078 3081 3086 3090 3091 3093 3095 3095 3096 3101 3105 3106 3105 3104 3103 3104 3102 3097 3096 3097 3098 3100 3097 3097 3100 3102 3105 3107 3110 3113 3116 3118 3121 3122 3125 3128 3130
3066 3064 3062 3060 3058 3055 3054 3053 3052 3051 3051 3051 3051 3050 3048 3048 3047 3045 3043 3043 3044 3044 3044 3044 3042 3041 3041 3040 3039 3040 3040 3041 3041 3042 3042 3044 3044 3044 3045 3046 3048 3049 3050 3054 3059 3062 3063 3064 3066 3068 3071 3075 3079 3084 3086 3087 3089 3091 3093 3095 3098 3098 3099 3101 3101 3098 3098 3096 3092 3092 3093 3094 3095 3094 3095 3098 3100 3102 3104 3106 3109 3112 3115 3117 3119 3123 3125 3128
3063 3062 3060 3058 3056 3053 3052 3050 3049 3049 3049 3050 3049 3048 3046 3045 3044 3043 3042 3042 3044 3044 3044 3043 3042 3041 3040 3039 3039 3038 3038 3039 3039 3039 3039 3039 3039 3039 3040 3042 3044 3045 3047 3053 3057 3060 3061 3062 3062 3065 3070 3073 3076 3077 3077 3080 3084 3088 3091 3092 3093 3093 3094 3096 3096 3094 3093 3091 3088 3088 3089 3089 3090 3091 3094 3096 3097 3100 3102 3104 3106 3109 3112 3114 3116 3119 3122 3125
3062 3060 3058 3056 3054 3052 3050 3048 3047 3048 3048 3048 3047 3046 3045 3043 3042 3042 3041 3041 3042 3043 3042 3042 3041 3040 3039 3039 3038 3037 3037 3037 3037 3037 3037 3036 3035 3035 3036 3038 3039 3041 3045 3050 3054 3058 3060 3061 3060 3062 3067 3068 3067 3067 3069 3074 3078 3082 3084 3085 3087 3089 3091 3091 3091 3091 3091 3088 3086 3086 3085 3085 3086 3088 3091 3093 3095 3097 3100 3102 3104 3106 3109 3112 3114 3116 3118 3121
3060 3058 3057 3054 3052 3050 3048 3047 3047 3047 3047 3046 3045 3044 3043 3041 3040 3040 3040 3039 3040 3040 3040 3039 3039 3039 3038 3038 3037 3037 3036 3036 3036 3036 3035 3034 3034 3033 3033 3034 3036 3040 3044 3049 3054 3056 3058 3059 3059 3060 3062 3062 3062 3064 3068 3072 3074 3076 3078 3080 3082 3084 3086 3087 3086 3087 3089 3086 3085 3086 3085 3083 3085 3086 3088 3091 3093 3095 3097 3100 3101 3104 3107 3109 3112 3114 3115 3117
3059 3058 3055 3052 3050 3048 3047 3047 3047 3046 3046 3044 3043 3042 3041 3040 3038 3038 3037 3036 3036 3037 3038 3038 3037 3037 3037 3037 3036 3036 3035 3035 3034 3034 3033 3032 3031 3030 3030 3032 3035 3038 3043 3048 3051 3051 3053 3057 3058 3058 3059 3060 3062 3064 3067 3070 3073 3075 3075 3077 3079 3080 3081 3082 3081 3083 3085 3085 3085 3087 3085 3084 3085 3085 3087 3090 3092 3094 3096 3097 3100 3102 3104 3107 3109 3111 3113 3114
3058 3056 3054 3051 3049 3047 3047 3047 3047 3045 3045 3043 3042 3041 3040 3038 3037 3035 3034 3033 3033 3034 3035 3036 3036 3036 3036 3035 3035 3035 3035 3034 3033 3032 3032 3031 3029 3029 3030 3031 3034 3037 3041 3045 3046 3046 3051 3055 3057 3057 3058 3060 3062 3064 3065 3068 3070 3071 3071 3073 3075 3075 3077 3079 3080 3081 3081 3081 3083 3084 3083 3083 3084 3084 3086 3089 3091 3093 3095 3097 3098 3100 3102 3105 3107 3108 3110 3112
3056 3055 3053 3050 3048 3047 3048 3048 3046 3045 3044 3043 3042 3041 3039 3038 3036 3034 3033 3032 3032 3032 3032 3033 3034 3034 3034 3034 3033 3033 3034 3033 3031 3031 3032 3031 3029 3029 3029 3030 3032 3034 3036 3037 3039 3042 3047 3052 3054 3054 3055 3056 3058 3059 3061 3062 3063 3063 3065 3068 3070 3072 3076 3078 3079 3080 3078 3077 3079 3080 3079 3081 3082 3082 3085 3089 3090 3092 3095 3096 3098 3099 3100 3102 3104 3106 3108 3110
3055 3054 3053 3051 3048 3047 3048 3047 3045 3045 3044 3042 3041 3040 3039 3037 3036 3034 3033 3031 3031 3030 3030 3029 3030 3031 3031 3032 3032 3032 3032 3032 3030 3030 3031 3031 3029 3029 3029 3030 3030 3031 3031 3032 3035 3039 3043 3047 3050 3049 3047 3047 3049 3049 3050 3053 3056 3058 3061 3063 3066 3069 3072 3073 3075 3075 3074 3075 3077 3076 3077 3080 3081 3082 3085 3088 3090 3092 3093 3095 3097 3098 3099 3101 3102 3104 3106 3108
3055 3054 3052 3050 3049 3048 3048 3046 3045 3045 3043 3042 3041 3040 3038 3038 3036 3034 3032 3031 3030 3029 3029 3028 3028 3028 3028 3029 3030 3031 3031 3031 3030 3030 3030 3031 3030 3028 3029 3029 3029 3030 3031 3032 3034 3038 3041 3043 3044 3044 3043 3042 3043 3043 3045 3048 3052 3055 3057 3059 3062 3065 3068 3070 3070 3069 3070 3074 3073 3073 3077 3080 3080 3082 3085 3087 3089 3091 3092 3094 3096 3097 3098 3099 3101 3102 3104 3106
3056 3055 3052 3049 3049 3048 3048 3047 3045 3044 3043 3042 3041 3039 3038 3038 3036 3034 3032 3031 3030 3028 3028 3028 3027 3026 3026 3026 3027 3028 3029 3030 3030 3030 3030 3030 3029 3028 3029 3029 3030 3030 3031 3032 3034 3036 3039 3041 3041 3041 3041 3041 3042 3043 3044 3046 3049 3051 3054 3057 3059 3062 3064 3065 3065 3065 3070 3071 3068 3071 3077 3079 3080 3082 3084 3085 3088 3089 3091 3093 3094 3096 3096 3097 3098 3100 3103 3104
3057 3055 3053 3051 3050 3048 3047 3046 3044 3043 3043 3042 3040 3039 3038 3037 3036 3034 3032 3031 3030 3028 3027 3027 3026 3025 3024 3024 3025 3026 3027 3028 3029 3029 3029 3029 3028 3029 3030 3029 3029 3030 3031 3032 3033 3034 3037 3039 3039 3040 3040 3040 3041 3043 3044 3046 3047 3049 3052 3054 3056 3059 3060 3061 3063 3066 3068 3067 3066 3071 3075 3076 3079 3081 3081 3083 3086 3087 3089 3091 3092 3093 3094 3095 3096 3098 3100 3102
3056 3055 3053 3052 3050 3048 3046 3044 3043 3043 3042 3041 3039 3039 3038 3037 3036 3034 3032 3031 3030 3029 3027 3026 3026 3025 3024 3024 3024 3025 3025 3026 3027 3027 3027 3027 3027 3029 3030 3031 3030 3030 3031 3032 3032 3033 3036 3037 3037 3038 3039 3039 3041 3042 3043 3045 3046 3047 3050 3052 3054 3056 3058 3060 3062 3064 3065 3065 3067 3070 3072 3074 3077 3078 3079 3081 3083 3085 3088 3089 3090 3091 3092 3093 3094 3095 3098 3100
3056 3054 3052 3050 3049 3047 3045 3043 3043 3042 3041 3040 3039 3038 3037 3036 3035 3033 3032 3031 3030 3029 3027 3026 3025 3025 3024 3024 3024 3024 3023 3023 3024 3024 3024 3026 3027 3029 3030 3031 3030 3030 3030 3032 3032 3033 3035 3036 3036 3036 3038 3039 3040 3042 3043 3044 3046 3047 3048 3049 3051 3054 3056 3058 3060 3061 3063 3064 3066 3068 3069 3071 3074 3076 3077 3079 3081 3082 3084 3086 3087 3088 3088 3090 3091 3093 3095 3097
3056 3054 3052 3049 3047 3046 3044 3043 3042 3041 3041 3039 3039 3037 3036 3035 3033 3032 3031 3030 3029 3027 3026 3025 3025 3024 3024 3024 3023 3023 3022 3022 3022 3022 3022 3024 3026 3027 3028 3028 3028 3028 3030 3031 3032 3033 3034 3035 3035 3037 3038 3038 3039 3041 3043 3044 3045 3045 3045 3046 3048 3051 3053 3055 3057 3059 3060 3062 3064 3065 3065 3067 3071 3074 3074 3076 3077 3079 3080 3082 3084 3085 3086 3087 3088 3090 3092 3093
3054 3053 3051 3048 3046 3045 3044 3042 3041 3041 3040 3038 3037 3036 3035 3033 3032 3031 3030 3029 3028 3026 3026 3025 3024 3024 3023 3023 3022 3022 3021 3021 3020 3021 3021 3022 3024 3024 3025 3026 3027 3028 3029 3030 3031 3033 3034 3035 3036 3037 3037 3037 3038 3040 3041 3043 3043 3041 3040 3042 3046 3049 3051 3053 3055 3056 3058 3061 3061 3060 3062 3066 3070 3071 3072 3074 3075 3077 3078 3080 3081 3083 3084 3085 3086 3087 3088 3090